Weather History for KLZZ - April, 2013

Change the Weather History Date:

Wednesday, April 10, 2013

  Actual Average (KGRK) Record (KGRK)
Temperature  
Mean Temperature 58 °F -  
Max Temperature 75 °F 74 °F 91 °F (2011)
Min Temperature 40 °F 53 °F 39 °F (2013)
Degree Days  
Heating Degree Days 8    
Growing Degree Days 8 (Base 50)    
Moisture  
Dew Point 45 °F    
Average Humidity 82    
Maximum Humidity 93    
Minimum Humidity 67    
Precipitation  
Precipitation 0.01 in - - ()
Sea Level Pressure  
Sea Level Pressure 29.86 in    
Wind  
Wind Speed 12 mph (NNW)    
Max Wind Speed 17 mph    
Max Gust Speed 26 mph    
Visibility 9 miles    
Events Rain    
Averages and records for this station are not official NWS values.
T = Trace of Precipitation, MM = Missing Value Source: NWS Daily Summary

Daily Weather History Graph

Daily Weather History Graph

Search for Another Location

Airport or City:

Trip Planner

Search our weather history database for the weather conditions in past years. The results will help you decide how hot, cold, wet, or windy it might be!

Date:

Astronomy

Apr. 10, 2013 Rise Set
Actual Time 7:10 AM CDT 7:58 PM CDT
Civil Twilight 6:45 AM CDT 8:22 PM CDT
Nautical Twilight 6:16 AM CDT 8:51 PM CDT
Astronomical Twilight 5:46 AM CDT 9:21 PM CDT
Moon 7:09 AM CDT (4/10) 8:31 PM CDT (4/10)
Length of Visible Light 13h 37m
Length of Day
12h 47m
New Moon, 0% of the Moon is Illuminated
Apr 10
New Moon
Apr 18
First Quarter
Apr 25
Full
May 2
Last Quarter
May 9
New

Hourly Weather History & Observations

Time (CDT) Temp. Windchill Dew Point Humidity Pressure Visibility Wind Dir Wind Speed Gust Speed Precip Events Conditions
12:15 AM 73.0 °F - 68.9 °F 87% 29.67 in 7.0 mi SE 12.7 mph 26.5 mph N/A   Overcast
12:35 AM 73.0 °F - 68.9 °F 87% 29.66 in 7.0 mi SSE 17.3 mph 24.2 mph N/A   Overcast
12:55 AM 73.0 °F - 68.4 °F 85% 29.66 in 7.0 mi SSE 16.1 mph 23.0 mph N/A   Overcast
1:15 AM 73.0 °F - 68.4 °F 85% 29.66 in 7.0 mi SSE 13.8 mph 24.2 mph N/A   Overcast
1:35 AM 73.0 °F - 68.5 °F 86% 29.66 in 7.0 mi SSE 13.8 mph 21.9 mph N/A   Overcast
1:55 AM 73.0 °F - 68.4 °F 85% 29.66 in 7.0 mi SSE 16.1 mph 25.3 mph N/A   Overcast
2:15 AM 73.0 °F - 68.0 °F 84% 29.66 in 7.0 mi SSE 15.0 mph 21.9 mph N/A   Overcast
2:35 AM 73.0 °F - 68.0 °F 84% 29.69 in 7.0 mi South 6.9 mph 19.6 mph N/A   Overcast
2:55 AM 75.6 °F - 69.8 °F 82% 29.72 in 10.0 mi SW 6.9 mph - N/A   Overcast
3:15 AM 75.0 °F - 68.7 °F 81% 29.71 in 10.0 mi South 16.1 mph 19.6 mph N/A   Overcast
3:35 AM 75.6 °F - 68.9 °F 80% 29.71 in 10.0 mi South 10.4 mph 16.1 mph N/A   Overcast
3:55 AM 75.6 °F - 68.7 °F 79% 29.72 in 10.0 mi SSW 6.9 mph 19.6 mph N/A Rain Light Rain
4:15 AM 73.9 °F - 67.5 °F 80% 29.73 in 10.0 mi South 4.6 mph - N/A Rain Light Rain
4:35 AM 57.0 °F - 49.5 °F 76% 29.77 in 10.0 mi NW 16.1 mph 26.5 mph N/A Rain Rain
4:55 AM 48.0 °F - 44.8 °F 89% 29.80 in 10.0 mi NW 13.8 mph 21.9 mph N/A Rain Light Rain
5:15 AM 44.4 °F 37.5 °F 41.4 °F 89% 29.82 in 7.0 mi NW 15.0 mph 24.2 mph N/A   Overcast
5:35 AM 43.5 °F 36.7 °F 40.5 °F 89% 29.82 in 10.0 mi NNW 13.8 mph 19.6 mph N/A   Overcast
5:55 AM 42.8 °F 36.2 °F 39.9 °F 90% 29.82 in 10.0 mi North 12.7 mph 20.7 mph N/A   Overcast
6:15 AM 42.8 °F 37.0 °F 40.1 °F 90% 29.83 in 10.0 mi NNW 10.4 mph 16.1 mph N/A   Overcast
6:35 AM 42.8 °F 36.6 °F 39.9 °F 90% 29.83 in 10.0 mi NNW 11.5 mph 17.3 mph N/A   Overcast
6:55 AM 42.8 °F 38.0 °F 39.7 °F 89% 29.85 in 10.0 mi NNW 8.1 mph - N/A   Overcast
7:15 AM 42.8 °F 36.6 °F 39.4 °F 88% 29.84 in 10.0 mi NNW 11.5 mph 18.4 mph N/A   Overcast
7:35 AM 42.8 °F 35.4 °F 39.6 °F 88% 29.85 in 10.0 mi NNW 15.0 mph 21.9 mph N/A   Overcast
7:55 AM 42.8 °F 36.6 °F 40.1 °F 90% 29.86 in 7.0 mi NNW 11.5 mph 17.3 mph N/A   Overcast
8:15 AM 41.4 °F 34.0 °F 39.2 °F 92% 29.86 in 3.0 mi NNW 13.8 mph 18.4 mph N/A   Overcast
8:35 AM 40.5 °F 33.2 °F 38.3 °F 92% 29.89 in 5.0 mi NNW 12.7 mph 18.4 mph N/A   Overcast
8:55 AM 40.1 °F 32.7 °F 37.8 °F 91% 29.89 in 5.0 mi NW 12.7 mph 19.6 mph N/A   Overcast
9:15 AM 40.1 °F 35.3 °F 38.3 °F 93% 29.91 in 3.0 mi NW 6.9 mph - N/A   Unknown
9:35 AM 40.1 °F 32.4 °F 38.3 °F 93% 29.91 in 7.0 mi NNW 13.8 mph 20.7 mph 0.01 in   Overcast
9:55 AM 40.1 °F 32.4 °F 38.3 °F 93% 29.92 in 10.0 mi NNW 13.8 mph - 0.01 in   Overcast
10:15 AM 40.1 °F 33.2 °F 38.1 °F 93% 29.92 in 10.0 mi NNW 11.5 mph 20.7 mph N/A   Overcast
10:35 AM 40.1 °F 32.7 °F 37.6 °F 91% 29.93 in 10.0 mi NW 12.7 mph 19.6 mph N/A   Overcast
10:55 AM 40.1 °F 33.2 °F 37.6 °F 91% 29.94 in 7.0 mi NW 11.5 mph - N/A   Overcast
11:15 AM 40.1 °F 32.4 °F 37.6 °F 91% 29.94 in 7.0 mi NNW 13.8 mph 21.9 mph N/A   Overcast
11:35 AM 40.1 °F 32.4 °F 37.4 °F 90% 29.95 in 10.0 mi NNW 13.8 mph 20.7 mph N/A   Overcast
11:55 AM 40.1 °F 33.6 °F 37.4 °F 90% 29.96 in 10.0 mi NNW 10.4 mph 19.6 mph N/A   Overcast
12:15 PM 40.1 °F 32.7 °F 37.0 °F 89% 29.95 in 10.0 mi NNW 12.7 mph 20.7 mph N/A   Overcast
12:35 PM 41.4 °F 34.3 °F 37.8 °F 87% 29.95 in 10.0 mi NW 12.7 mph 19.6 mph N/A   Overcast
12:55 PM 42.8 °F 36.2 °F 37.9 °F 83% 29.93 in 10.0 mi NW 12.7 mph 19.6 mph N/A   Overcast
1:15 PM 43.9 °F 37.5 °F 38.3 °F 81% 29.93 in 10.0 mi NNW 12.7 mph 17.3 mph N/A   Overcast
1:35 PM 45.1 °F 39.1 °F 38.7 °F 78% 29.92 in 10.0 mi NNW 12.7 mph 18.4 mph N/A   Overcast
2:15 PM 50.4 °F - 42.6 °F 75% 29.91 in 10.0 mi NNW 11.5 mph 18.4 mph N/A   Overcast
2:35 PM 50.4 °F - 42.4 °F 74% 29.91 in 10.0 mi NW 10.4 mph 17.3 mph N/A   Overcast
2:55 PM 50.4 °F - 41.9 °F 73% 29.92 in 10.0 mi North 10.4 mph 16.1 mph N/A   Overcast
3:15 PM 50.4 °F - 41.7 °F 72% 29.92 in 10.0 mi NNW 10.4 mph 16.1 mph N/A   Overcast
3:35 PM 50.4 °F - 41.7 °F 72% 29.91 in 10.0 mi NNW 11.5 mph 19.6 mph N/A   Overcast
3:55 PM 50.4 °F - 41.0 °F 70% 29.90 in 10.0 mi NNW 10.4 mph - N/A   Overcast
4:15 PM 50.4 °F - 41.0 °F 70% 29.90 in 10.0 mi NNW 12.7 mph 19.6 mph N/A   Mostly Cloudy
4:35 PM 50.5 °F - 40.6 °F 69% 29.89 in 10.0 mi NNW 8.1 mph 20.7 mph N/A   Mostly Cloudy
4:55 PM 52.9 °F - 42.1 °F 67% 29.88 in 10.0 mi North 15.0 mph 20.7 mph N/A   Mostly Cloudy
5:15 PM 52.9 °F - 42.1 °F 67% 29.88 in 10.0 mi NNW 10.4 mph 18.4 mph N/A   Scattered Clouds
5:35 PM 52.9 °F - 42.3 °F 67% 29.89 in 10.0 mi North 11.5 mph 17.3 mph N/A   Clear
5:55 PM 52.2 °F - 41.9 °F 68% 29.88 in 10.0 mi North 12.7 mph 18.4 mph N/A   Clear
6:15 PM 51.1 °F - 41.0 °F 68% 29.87 in 10.0 mi North 10.4 mph 18.4 mph N/A   Clear
6:35 PM 50.4 °F - 40.5 °F 69% 29.89 in 10.0 mi NNW 11.5 mph 16.1 mph N/A   Clear
6:55 PM 50.4 °F - 41.0 °F 70% 29.90 in 10.0 mi NNW 9.2 mph - N/A   Clear
7:15 PM 50.4 °F - 41.4 °F 71% 29.91 in 10.0 mi North 8.1 mph - N/A   Clear
7:35 PM 50.4 °F - 41.9 °F 73% 29.91 in 10.0 mi NNW 9.2 mph - N/A   Clear
7:55 PM 49.3 °F - 41.9 °F 76% 29.92 in 10.0 mi NNW 4.6 mph - N/A   Clear
8:15 PM 47.7 °F - 41.0 °F 78% 29.90 in 10.0 mi NNW 8.1 mph - N/A   Clear
8:35 PM 47.5 °F - 41.7 °F 80% 29.91 in 10.0 mi North 5.8 mph - N/A   Clear
8:55 PM 45.1 °F 42.8 °F 39.7 °F 81% 29.92 in 10.0 mi North 4.6 mph - N/A   Clear
9:15 PM 44.2 °F 41.8 °F 39.4 °F 83% 29.92 in 10.0 mi NNW 4.6 mph - N/A   Clear
9:55 PM 43.7 °F 41.1 °F 39.2 °F 84% 29.95 in 10.0 mi NNW 4.6 mph - N/A   Clear
10:15 PM 43.3 °F 40.7 °F 38.3 °F 82% 29.96 in 10.0 mi North 4.6 mph - N/A   Clear
10:35 PM 43.2 °F 39.7 °F 37.9 °F 82% 29.96 in 10.0 mi NNW 5.8 mph - N/A   Clear
10:55 PM 42.8 °F 40.1 °F 37.4 °F 81% 29.96 in 10.0 mi NNW 4.6 mph - N/A   Clear
11:15 PM 42.8 °F 40.1 °F 37.4 °F 81% 29.97 in 10.0 mi NNW 4.6 mph - N/A   Clear
11:35 PM 42.8 °F 40.1 °F 37.8 °F 82% 29.97 in 10.0 mi NNW 4.6 mph - N/A   Clear
11:55 PM 42.8 °F 39.3 °F 37.4 °F 81% 29.97 in 10.0 mi NNW 5.8 mph - N/A   Clear